Le nostre stazioni meteo in Italia

Pubblicità
Il mio iltempo24.it
Monte Cimone, Italia (16134): Temperatura & dewpoint: 03.07.2020 05:00:00 - 09.07.2020 05:00:00 (CEST)Monte Cimone, Italia (16134): velocità del vento & gusts: 03.07.2020 05:00:00 - 09.07.2020 05:00:00 (CEST)Monte Cimone, Italia (16134): direzione del vento: 03.07.2020 05:00:00 - 09.07.2020 05:00:00 (CEST)Monte Cimone, Italia (16134): ore di luce: 03.07.2020 05:00:00 - 09.07.2020 05:00:00 (CEST)
Data & Tempo tt [°C] td [°C] ff [km/h] ff [kn] fx [km/h] fx [kn] dd sd [min]
09.07.2020 05:00:00 12,8 -2,7 5 3 - - SSO 0
09.07.2020 04:00:00 12,6 -6,0 5 3 - - SSO 0
09.07.2020 03:00:00 12,7 -1,9 4 2 - - N 0
09.07.2020 02:00:00 12,7 -4,0 5 3 - - S 0
09.07.2020 01:00:00 13,1 -2,9 4 2 - - N 0
09.07.2020 00:00:00 13,8 -5,8 2 1 - - ESE 0
08.07.2020 23:00:00 14,0 -7,0 8 4 - - NO 0
08.07.2020 22:00:00 14,3 -8,5 13 7 - - ONO 0
08.07.2020 21:00:00 14,5 -4,7 13 7 - - OSO 0
08.07.2020 20:00:00 14,7 8,8 15 8 - - SO 8
08.07.2020 19:00:00 16,1 9,6 9 5 16 9 SO 55
08.07.2020 18:00:00 16,6 9,7 4 2 - - N 49
08.07.2020 17:00:00 17,1 9,7 4 2 - - N 59
08.07.2020 16:00:00 17,2 9,8 4 2 19 11 N 60
08.07.2020 15:00:00 17,1 8,5 4 2 16 9 N 60
08.07.2020 14:00:00 16,6 8,4 4 2 - - N 59
08.07.2020 13:00:00 15,7 8,0 4 2 - - N 59
08.07.2020 12:00:00 14,7 0,4 4 2 - - N 60
08.07.2020 11:00:00 13,2 -6,8 11 6 - - SE 60
08.07.2020 10:00:00 12,7 -4,9 8 4 - - E 60
08.07.2020 09:00:00 11,7 -10,5 9 5 - - ESE 60
08.07.2020 08:00:00 11,0 -12,1 11 6 - - E 60
08.07.2020 07:00:00 10,3 -12,3 11 6 - - E 37
08.07.2020 06:00:00 9,1 -4,4 11 6 - - E 0
08.07.2020 05:00:00 9,8 -9,9 15 8 - - E 0
08.07.2020 04:00:00 9,6 -8,3 15 8 - - E 0
08.07.2020 03:00:00 9,3 -5,5 15 8 - - E 0
08.07.2020 02:00:00 9,0 -2,2 16 9 - - E 0
08.07.2020 01:00:00 8,8 -2,5 13 7 - - E 0
08.07.2020 00:00:00 9,3 1,4 15 8 - - E 0
07.07.2020 23:00:00 8,9 -0,1 18 10 - - E 0
07.07.2020 22:00:00 9,2 0,5 16 9 - - E 0
07.07.2020 21:00:00 9,3 1,1 18 10 - - NE 0
07.07.2020 20:00:00 10,0 3,3 4 2 - - N 8
07.07.2020 19:00:00 10,6 2,7 4 2 16 9 N 37
07.07.2020 18:00:00 11,9 8,0 4 2 - - N 57
07.07.2020 17:00:00 11,1 4,4 11 6 - - NNE 60
07.07.2020 16:00:00 10,7 3,3 11 6 - - NE 60
07.07.2020 15:00:00 9,4 4,4 13 7 27 15 NE 60
07.07.2020 14:00:00 - - - - - - - -
07.07.2020 13:00:00 7,4 7,4 29 16 - - E 0
07.07.2020 12:00:00 6,8 6,8 31 17 - - E 0
07.07.2020 11:00:00 7,5 7,5 31 17 - - ENE 0
07.07.2020 10:00:00 - - - - - - - -
07.07.2020 09:00:00 8,1 8,1 37 20 50 27 ENE 0
07.07.2020 08:00:00 8,6 8,5 46 25 - - NE 0
07.07.2020 07:00:00 - - - - - - - -
07.07.2020 06:00:00 10,8 10,6 4 2 36 19 N 0
07.07.2020 05:00:00 11,3 9,8 26 14 - - NNE 0
07.07.2020 04:00:00 11,6 11,0 4 2 35 19 N 0
07.07.2020 03:00:00 12,3 9,8 26 14 32 18 N 0
07.07.2020 02:00:00 12,8 5,3 4 2 - - N 0
07.07.2020 01:00:00 13,6 2,3 18 10 - - NNO 0
07.07.2020 00:00:00 14,4 3,0 21 11 31 17 O 0
06.07.2020 23:00:00 14,5 3,9 29 16 - - OSO 0
06.07.2020 22:00:00 14,7 4,5 24 13 35 19 OSO 0
06.07.2020 21:00:00 15,2 9,5 26 14 - - OSO 0
06.07.2020 20:00:00 16,4 11,8 18 10 - - OSO 8
06.07.2020 19:00:00 17,3 11,6 4 2 31 17 N 42
06.07.2020 18:00:00 18,1 10,5 4 2 18 10 N 51
06.07.2020 17:00:00 17,9 11,3 4 2 - - N 22
06.07.2020 16:00:00 17,3 12,4 4 2 14 8 N 2
06.07.2020 15:00:00 17,2 11,7 4 2 - - OSO 3
06.07.2020 14:00:00 17,0 11,2 4 2 - - N 14
06.07.2020 13:00:00 17,1 11,0 4 2 17 9 N 18
06.07.2020 12:00:00 16,5 9,9 4 2 14 8 N 60
06.07.2020 11:00:00 15,7 6,1 13 7 - - ESE 60
06.07.2020 10:00:00 14,9 4,9 13 7 - - E 60
06.07.2020 09:00:00 14,0 1,4 16 9 - - E 60
06.07.2020 08:00:00 13,4 -0,3 22 12 - - NE 60
06.07.2020 07:00:00 13,0 -0,5 26 14 - - NE 39
06.07.2020 06:00:00 12,8 -2,6 28 15 - - NE 0
06.07.2020 05:00:00 12,5 -3,7 24 13 - - NE 0
06.07.2020 04:00:00 12,8 0,8 4 2 21 11 N 0
06.07.2020 03:00:00 12,5 -1,2 21 11 - - NE 0
06.07.2020 02:00:00 12,7 0,7 4 2 - - N 0
06.07.2020 01:00:00 12,9 4,2 4 2 - - N 0
06.07.2020 00:00:00 12,8 3,5 4 2 14 8 N 0
05.07.2020 23:00:00 12,1 10,2 24 13 - - N 0
05.07.2020 22:00:00 12,4 10,0 4 2 - - N 0
05.07.2020 21:00:00 13,0 6,9 18 10 - - NNO 0
05.07.2020 20:00:00 14,0 7,3 9 5 - - N 8
05.07.2020 19:00:00 14,6 8,8 11 6 - - NNE 58
05.07.2020 18:00:00 15,1 10,4 4 2 17 9 N 58
05.07.2020 17:00:00 15,4 10,6 4 2 - - N 38
05.07.2020 16:00:00 15,4 11,2 4 2 - - N 10
05.07.2020 15:00:00 15,3 10,6 4 2 - - N 23
05.07.2020 14:00:00 14,8 10,5 4 2 - - N 14
05.07.2020 13:00:00 14,8 10,7 4 2 - - N 37
05.07.2020 12:00:00 13,9 9,8 4 2 14 8 N 51
05.07.2020 11:00:00 13,1 8,7 4 2 - - N 58
05.07.2020 10:00:00 13,0 8,0 4 2 20 11 N 60
05.07.2020 09:00:00 11,7 4,6 4 2 29 16 N 60
05.07.2020 08:00:00 11,4 3,9 4 2 - - N 60
05.07.2020 07:00:00 11,0 5,8 21 11 - - NNE 39
05.07.2020 06:00:00 10,6 4,7 15 8 - - NNE 0
05.07.2020 05:00:00 10,7 4,3 16 9 - - N 0
05.07.2020 04:00:00 10,7 4,4 18 10 - - NNE 0
05.07.2020 03:00:00 10,4 4,7 11 6 18 10 NNE 0
05.07.2020 02:00:00 10,3 5,0 22 12 - - NNE 0
05.07.2020 01:00:00 10,2 4,8 24 13 - - NNE 0
05.07.2020 00:00:00 10,3 5,3 22 12 - - N 0
04.07.2020 23:00:00 10,4 6,0 21 11 - - NNO 0
04.07.2020 22:00:00 10,8 8,0 24 13 - - NO 0
04.07.2020 21:00:00 12,3 5,8 18 10 - - NO 0
04.07.2020 20:00:00 12,9 7,3 9 5 - - ONO 9
04.07.2020 19:00:00 12,9 9,6 4 2 - - N 36
04.07.2020 18:00:00 12,7 9,0 4 2 - - N 44
04.07.2020 17:00:00 12,3 8,7 4 2 - - N 28
04.07.2020 16:00:00 12,4 7,8 4 2 24 13 N 31
04.07.2020 15:00:00 12,8 9,2 4 2 20 11 N 22
04.07.2020 14:00:00 12,5 9,3 4 2 - - N 29
04.07.2020 13:00:00 11,7 8,7 4 2 19 10 N 47
04.07.2020 12:00:00 10,2 7,5 15 8 29 15 E 30
04.07.2020 11:00:00 9,4 7,3 21 11 - - E 51
04.07.2020 10:00:00 9,2 6,1 18 10 - - E 30
04.07.2020 09:00:00 - - - - - - - -
04.07.2020 08:00:00 8,9 4,2 4 2 - - N 23
04.07.2020 07:00:00 8,6 3,5 21 11 - - NNO 0
04.07.2020 06:00:00 7,7 4,6 22 12 31 17 NO 0
04.07.2020 05:00:00 - - - - - - - -
04.07.2020 04:00:00 8,2 7,2 21 11 30 16 ENE 0
04.07.2020 03:00:00 9,5 8,9 18 10 27 14 N 0
04.07.2020 02:00:00 9,9 4,8 16 9 - - NE 0
04.07.2020 01:00:00 - - - - - - - -
04.07.2020 00:00:00 10,8 6,6 4 2 20 11 N 0
03.07.2020 23:00:00 11,3 5,3 24 13 - - SSE 0
03.07.2020 22:00:00 11,3 6,1 34 18 - - SSE 0
03.07.2020 21:00:00 12,2 5,5 16 9 - - SE 0
03.07.2020 20:00:00 12,8 3,4 8 4 - - SE 0
03.07.2020 19:00:00 12,1 3,5 15 8 - - E 0
03.07.2020 18:00:00 12,2 5,5 15 8 - - NNE 0
03.07.2020 17:00:00 14,8 8,1 4 2 - - N 14
03.07.2020 16:00:00 14,0 9,4 4 2 - - N 19
03.07.2020 15:00:00 15,9 12,3 4 2 19 10 N 19
03.07.2020 14:00:00 16,3 11,9 4 2 - - N 18
03.07.2020 13:00:00 13,6 9,0 11 6 - - SSE 0
03.07.2020 12:00:00 15,4 10,6 4 2 - - N 19
03.07.2020 11:00:00 15,5 10,8 4 2 - - N 41
03.07.2020 10:00:00 15,2 9,0 4 2 - - N 57
03.07.2020 09:00:00 14,5 6,0 4 2 - - N 60
03.07.2020 08:00:00 13,4 7,0 5 3 - - O 60
03.07.2020 07:00:00 12,9 6,2 13 7 - - O 40
03.07.2020 06:00:00 12,4 6,4 21 11 - - O 0
03.07.2020 05:00:00 12,7 8,0 26 14 - - O 0

tt = Temperatura
td = dewpoint
ff = velocità del vento
fx = gusts
dd = direzione del vento
sd = ore di luce

Stazioni seguenti

WeatherPro
AMSI
MeteoEarth